Retour au catalogue

STARLINK-37217

ActifCommunicationsVLEO
NORAD 68335·PAYLOAD·🇺🇸 United States

Lancé Mar 22, 2026 depuis Cape Canaveral Space Force Station

Loading…

Prochains Passages (prochaines 24 heures)

TLE

FraisSource: CelesTrak SupGP

Époque: Sep 15, 2026, 02:56 UTC

1 68335C 26059Q   26258.12270833 -.00020763  00000+0 -61342-3 0  2582
2 68335  53.1577 179.2023 0001337  81.3364  58.9913 15.34401926    19

Suivez STARLINK-37217 en temps réel avec AllMySat

Download on the App Store